Home   Weather   Louisville   Past weeks

Flag for USA Past Weather in Louisville, Kentucky, USA — Yesterday and Last 2 Weeks

Now
62 °F

Mostly cloudy.


Feels Like: 62 °F
Forecast: 57 / 70 °F
Wind: 5 mph from South

Location: Standiford Field

Current Time: Feb 22, 2017 at 10:53:55 am

Latest Report: Feb 22, 2017 at 9:56 am


Visibility: 7 mi

Pressure: 29.92 "Hg

Humidity: 75%

Dew Point: 54 °F

Location of LouisvilleLocation

Past Weather in Louisville — Graph

°F

Louisville Temperature Yesterday

Maximum temperature yesterday: 72 °F (at 1:56 pm)
Minimum temperature yesterday: 54 °F (at 7:56 am)
Average temperature yesterday: 63 °F

High & Low Weather Summary for the Past Weeks

 TemperatureHumidityPressure
High73 °F (Feb 20, 3:56 pm)97% (Feb 20, 9:37 am)30.43 "Hg (Feb 20, 9:37 am)
Low23 °F (Feb 9, 8:56 pm)17% (Feb 13, 3:56 pm)29.52 "Hg (Feb 7, 2:56 pm)
Average50 °F59%29.98 "Hg
* Reported Feb 7 9:01 am — Feb 22 9:21 am, Louisville, Weather by CustomWeather, © 2017

Note: Actual official high and low records may vary slightly from our data, if they occured in-between our weather recording intervals... More about our weather records

Advertising

Louisville Weather History for the Previous 24 Hours

Scroll right to see more
 ConditionsComfort  
Time TempWeatherWind HumidityBarometerVisibility
9:21 am
Wed, Feb 22
60 °FCloudy.6 mph80%29.92 "Hg7 mi
8:56 am59 °FMostly cloudy.6 mph84%29.92 "Hg6 mi
7:56 am58 °FFog.6 mph87%29.92 "Hg6 mi
7:25 am58 °FMostly cloudy.5 mph87%29.92 "Hg7 mi
6:56 am58 °FMostly cloudy.6 mph87%29.91 "Hg7 mi
5:56 am58 °FMostly cloudy.6 mph87%29.90 "Hg8 mi
4:56 am59 °FMostly cloudy.7 mph84%29.89 "Hg8 mi
4:25 am59 °FMostly cloudy.7 mph84%29.91 "Hg9 mi
3:56 am59 °FOvercast.6 mph84%29.90 "Hg8 mi
3:14 am59 °FOvercast.6 mph84%29.91 "Hg9 mi
2:56 am59 °FOvercast.6 mph84%29.90 "Hg9 mi
2:15 am59 °FMostly cloudy.3 mph84%29.93 "Hg8 mi
1:56 am60 °FMostly cloudy.6 mph80%29.91 "Hg8 mi
12:56 am60 °FOvercast.5 mph80%29.93 "Hg8 mi
12:20 am61 °FMostly cloudy.5 mph78%29.94 "Hg9 mi
11:56 pm
Tue, Feb 21
61 °FLight rain. Mostly cloudy.7 mph78%29.93 "Hg10 mi
10:56 pm61 °FMostly cloudy.7 mph78%29.94 "Hg9 mi
9:56 pm62 °FMostly cloudy.7 mph73%29.96 "Hg10 mi
8:56 pm63 °FMostly cloudy.12 mph70%29.96 "Hg10 mi
7:56 pm63 °FMostly cloudy.9 mph73%29.96 "Hg10 mi
6:56 pm69 °FOvercast.12 mph49%29.95 "Hg10 mi
5:56 pm68 °FOvercast.6 mph49%29.94 "Hg8 mi
4:56 pm70 °FMostly cloudy.6 mph46%29.92 "Hg9 mi
3:56 pm72 °FMore clouds than sun.7 mph43%29.92 "Hg9 mi
2:56 pm71 °FCloudy.6 mph44%29.94 "Hg9 mi
1:56 pm72 °FMostly cloudy.8 mph41%29.94 "Hg9 mi
12:56 pm71 °FMore clouds than sun.5 mph42%29.96 "Hg9 mi
11:56 am70 °FMostly cloudy.8 mph42%29.98 "Hg10 mi
10:56 am67 °FMore clouds than sun.10 mph44%30.00 "Hg10 mi
Weather by CustomWeather, © 2017

See weather overviewHow to use our weather pages